Overview Statistics Trail Chart Weather Telemetry Raw packets
 

This is the latest recevied weather packets stored in our database for station/object KI6PPU. If no packets are shown the sender has not sent any weather packets the latest 10 day(s).

<< 110 111 112 113 114 >>
Time Temp. Humidity Pressure Rain* Wind** Luminosity Snow
1787730307 18.33° C 51% 1019 hPa 0 mm - 0 W/m² -
1787730002 18.89° C 50% 1019 hPa 0 mm - 0 W/m² -
1787729701 18.89° C 48% 1018.6 hPa 0 mm - 0 W/m² -
1787729396 19.44° C 49% 1018.8 hPa 0 mm - 0 W/m² -
1787729096 19.44° C 47% 1018.8 hPa 0 mm - 0 W/m² -
1787728791 18.89° C 49% 1018.5 hPa 0 mm - 0 W/m² -
1787728487 18.89° C 50% 1018.8 hPa 0 mm - 0 W/m² -
1787728183 19.44° C 49% 1018.6 hPa 0 mm - 0 W/m² -
1787727880 19.44° C 48% 1018.5 hPa 0 mm - 0 W/m² -
1787727576 19.44° C 48% 1018.6 hPa 0 mm - 0 W/m² -
1787727278 20° C 47% 1018.8 hPa 0 mm - 0 W/m² -
1787726971 19.44° C 46% 1018.6 hPa 0 mm - 0 W/m² -
1787726666 20° C 47% 1018.6 hPa 0 mm - 0 W/m² -
1787726362 20° C 47% 1018.5 hPa 0 mm - 0 W/m² -
1787726057 20.56° C 45% 1018.6 hPa 0 mm - 0 W/m² -
1787725753 21.11° C 44% 1018.6 hPa 0 mm - 0 W/m² -
1787725449 21.67° C 41% 1018.8 hPa 0 mm - 0 W/m² -
1787725144 21.67° C 42% 1018.5 hPa 0 mm - 0 W/m² -
1787724843 22.22° C 41% 1018.6 hPa 0 mm - 0 W/m² -
1787724539 22.78° C 40% 1018.8 hPa 0 mm - 0 W/m² -
1787724237 22.78° C 40% 1018.8 hPa 0 mm - 0 W/m² -
1787723934 22.22° C 40% 1018.9 hPa 0 mm - 0 W/m² -
1787723632 21.67° C 42% 1018.8 hPa 0 mm - 0 W/m² -
1787723329 21.67° C 42% 1018.8 hPa 0 mm - 0 W/m² -
1787723029 22.22° C 41% 1018.8 hPa 0 mm - 0 W/m² -

* Rain latest hour (hover to see other rain measurements)
** Current wind speed in m/s (hover to see current wind gust speed)